Flag for U.S.A. Weather past 2 weeks in Lincoln, Nebraska, U.S.A.

Now
85 °F

Sunny.


Feels Like: 89 °F
Forecast: 67 / 88 °F
Wind: 25 mph from Southeast

Location: Lincoln Municipal Airport

Current Time: Aug 27, 2015 at 3:20:05 PM

Latest Report: Aug 27, 2015 at 2:54 PM


Visibility: 10 mi

Pressure: 29.89 "Hg

Humidity: 59%

Dew point: 69 °F

Location of LincolnLocation

Historic Weather in Lincoln — Graph

°F

Lincoln temperature yesterday

Maximum temperature yesterday: 85 °F (at 4:54 PM)
Minimum temperature yesterday: 55 °F (at 5:54 AM)
Average temperature yesterday: 70 °F

Past Weeks' High & Low Weather Summary

 TemperatureHumidityPressure
High93 °F (Aug 16, 3:54 PM)96% (Aug 18, 12:54 AM)30.20 "Hg (Aug 18, 12:54 AM)
Low47 °F (Aug 24, 4:54 AM)30% (Aug 24, 1:54 PM)29.69 "Hg (Aug 18, 7:54 AM)
Average72 °F67%29.99 "Hg
* Reported Aug 12 1:54 PM — Aug 27 1:54 PM, Lincoln, Weather by CustomWeather, © 2015

Note: Actual official high and low records may vary slightly from our data, if they occured in-between our weather recording intervals... More about our weather records

Advertising

Lincoln weather history for previous 24 hours

 ConditionsComfort  
Time TempWeatherWind HumidityBarometerVisibility
1:54 PM
Thu, Aug 27
83 °FSunny.24 mph61%29.92 "Hg10 mi
12:54 PM79 °FSunny.20 mph62%29.97 "Hg10 mi
11:54 AM75 °FSunny.18 mph69%29.98 "Hg10 mi
10:54 AM75 °FSunny.14 mph69%29.99 "Hg10 mi
9:54 AM72 °FSunny.18 mph71%29.95 "Hg10 mi
8:54 AM67 °FSunny.13 mph85%29.98 "Hg10 mi
7:54 AM67 °FSunny.7 mph87%29.99 "Hg10 mi
6:54 AM69 °FThundershowers. Passing clouds.No wind76%30.00 "Hg10 mi
5:54 AM69 °FClear.10 mph76%29.98 "Hg10 mi
4:54 AM69 °FClear.10 mph76%29.98 "Hg10 mi
3:54 AM69 °FClear.10 mph76%29.98 "Hg10 mi
2:54 AM70 °FClear.13 mph73%30.00 "Hg10 mi
1:54 AM70 °FClear.8 mph73%30.01 "Hg10 mi
12:54 AM71 °FClear.9 mph71%30.02 "Hg10 mi
11:54 PM
Wed, Aug 26
71 °FClear.12 mph73%30.03 "Hg10 mi
10:54 PM71 °FClear.9 mph76%30.05 "Hg10 mi
9:54 PM73 °FClear.9 mph71%30.06 "Hg10 mi
8:54 PM74 °FSunny.12 mph69%30.04 "Hg10 mi
7:54 PM76 °FSunny.13 mph67%30.04 "Hg10 mi
6:54 PM82 °FSunny.8 mph51%30.04 "Hg10 mi
5:54 PM84 °FSunny.9 mph45%30.06 "Hg10 mi
4:54 PM85 °FSunny.12 mph46%30.06 "Hg10 mi
3:54 PM84 °FSunny.10 mph46%30.06 "Hg10 mi
Weather by CustomWeather, © 2015

See weather overviewHow to use our weather pages